| Ora | Descriere | Temp | Se simte | Precipitatii | Umiditate | Vant |
|---|---|---|---|---|---|---|
| 00:00 | Senin | 13.2° | 12° | 0% | 71% | SSE 14 KM/H |
| 01:00 | Senin | 12.6° | 11° | 0% | 74% | SSE 15.8 KM/H |
| 02:00 | Senin | 11.8° | 10° | 0% | 76% | SSE 15.5 KM/H |
| 03:00 | Senin | 11.1° | 9.2° | 0% | 77% | SSE 14.8 KM/H |
| 04:00 | Senin | 10.4° | 8.7° | 0% | 80% | SSE 13 KM/H |
| 05:00 | Senin | 9.8° | 8.1° | 0% | 82% | SSE 11.9 KM/H |
| 06:00 | Senin | 9.3° | 7.5° | 0% | 84% | SSE 11.5 KM/H |
| 07:00 | Senin | 10.8° | 9.6° | 0% | 81% | S 10.4 KM/H |
| 08:00 | Senin | 13.6° | 12.7° | 0% | 74% | S 12.2 KM/H |
| 09:00 | Senin | 16° | 16° | 0% | 67% | SSE 14.4 KM/H |
| 10:00 | Senin | 18.3° | 18.3° | 0% | 61% | S 16.2 KM/H |
| 11:00 | Senin | 20.3° | 20.3° | 0% | 55% | S 18 KM/H |
| 12:00 | Senin | 22° | 24.4° | 0% | 49% | S 19.1 KM/H |
| 13:00 | Senin | 23.2° | 24.6° | 0% | 43% | S 19.1 KM/H |
| 14:00 | Senin | 24° | 24.7° | 0% | 38% | S 18.4 KM/H |
| 15:00 | Senin | 24.4° | 24.8° | 0% | 36% | S 18 KM/H |
| 16:00 | Senin | 24.4° | 24.7° | 0% | 35% | S 18.7 KM/H |
| 17:00 | Senin | 24.1° | 24.6° | 0% | 36% | S 19.8 KM/H |
| 18:00 | 23.5° | 24.5° | 0% | 38% | S 19.8 KM/H | |
| 19:00 | Senin | 22.1° | 24.3° | 0% | 45% | SSE 18.7 KM/H |
| 20:00 | Patchy rain nearby | 18.9° | 18.9° | 87% | 53% | SSE 21.6 KM/H |
| 21:00 | 16.9° | 16.9° | 0% | 55% | SSE 23.4 KM/H | |
| 22:00 | 15.4° | 15.4° | 0% | 58% | SSE 21.6 KM/H | |
| 23:00 | Senin | 14.5° | 12.9° | 0% | 59% | S 21.6 KM/H |